{"data":{"norad_id":54068,"epoch":"2026-05-24T23:29:11.656032Z","epoch_age_seconds":83722,"freshness":"FRESH","line1":"1 54068U 22136T   26144.97860713  .00000186  00000+0  29758-4 0  9994","line2":"2 54068  53.2138   1.4575 0001025  77.2146 282.8961 15.08840184198366","mean_motion":15.08840184,"eccentricity":0.0001025,"inclination_deg":53.2138,"raan_deg":1.4575,"arg_perigee_deg":77.2146,"mean_anomaly_deg":282.8961,"bstar":2.9758e-5,"rev_number":19836,"period_min":95.437543039349,"perigee_km":539.03374386755,"apogee_km":540.45190923199,"semimajor_km":6917.8798265498,"source":"CELESTRAK","updated_at":"2026-05-25T13:38:17.650919Z"}}